sat.trackr.live / text

‹ back to catalog

GALAXY 18 (G-18)

NORAD 32951 · 2008-024A

PAYLOAD ACTIVE UNKNOWN

§ Identity

Operator
Country
US
Launch date
2008-05-21
Launch site
SEAL
Launch vehicle
Mass (kg)
RCS (m²)
20.98

Purposes: comms

External: N2YO · Heavens-Above · Gunter

§ Orbital elements

Epoch: 2026-09-20T03:50:05.137152Z

Period
1,436.08 min
Inclination
0.0142°
Eccentricity
0.0002984
Mean motion
1.00272892 rev/d
Perigee alt
35,773.7 km
Apogee alt
35,798.9 km
Semi-major
42,164.4 km
B*
0.0000e+0
RAAN
117.8423°
Arg perigee
55.1629°
Mean anomaly
120.5843°
Rev number
4,680

§ Raw data

GALAXY 18 (G-18)1 32951U 08024A   26263.15978168  .00000021  00000+0  00000+0 0  99992 32951   0.0142 117.8423 0002984  55.1629 120.5843  1.00272892 46808

JSON: /api/v1/satellites/32951 · /tle

For live sub-satellite position, see the globe view (requires WebGL).

§ Visibility from observer

Set your observer location to see the next 7 days of passes ≥ 10°. The values pass through the URL so the page stays shareable.

No JS? Fill the form by hand. The geolocation button needs JavaScript.